Location: Unspecified
(35.7250°N, 0.0000°E)
Time: 13:38:04
(UTC+00:00)

Explorer 7 - Pass Details

Date: 23 August 2020
Orbit: 485 x 679 km, 50.3° (Epoch: 21 September)

Event Time Altitude Azimuth Distance (km) Brightness Sun altitude
Rises 21:24:14 0° 305° (NW) 2,620 11.4 -30.2°
Reaches altitude 10° 21:26:30 10° 301° (WNW) 1,709 10.2 -30.5°
Enters shadow 21:27:49 20° 294° (WNW) 1,206 9.2 -30.7°
